VK1ET-13 Weather Reports


time (UTC)temp
C
wind
direction
speed
KPH
gust
KPH
rain 1hr
cm
rain 24hr
cm
rain mn
cm
humidity
%
barometer
mb
20201025134024 8 0.0 6.4 0.13 0.61 0.08 94 1018.9
20201025132028 8 0.0 12.9 0.10 0.58 0.05 94 1019.0
20201025131019 8 0.0 8.0 0.10 0.56 0.03 93 1019.1
20201025124036 8 0.0 8.0 0.13 0.51 0.51 93 1018.9
20201025123033 8 0.0 14.5 0.15 0.51 0.51 93 1018.8
20201025121026 9 135 1.6 17.7 0.15 0.48 0.46 92 1018.8
20201025115029 10 135 1.6 17.7 0.15 0.43 0.41 94 1018.9
20201025113020 10 0.0 6.4 0.15 0.38 0.36 95 1018.7
20201025112022 10 0.0 0.0 0.13 0.38 0.33 94 1018.7
20201025111034 10 0.0 3.2 0.08 0.36 0.30 94 1018.5
20201025110027 10 0.0 0.0 0.05 0.33 0.25 94 1018.5
20201025100023 10 0.0 4.8 0.03 0.28 0.23 93 1017.7
20201025095029 10 0.0 8.0 0.03 0.28 0.23 93 1017.5
20201025094019 10 0.0 9.7 0.03 0.28 0.23 92 1017.4
20201025093032 10 0.0 8.0 0.03 0.28 0.23 92 1017.3
20201025092020 10 0.0 6.4 0.03 0.30 0.23 91 1017.2
20201025091021 10 0.0 9.7 0.03 0.33 0.23 90 1017.0
20201025085020 10 180 1.6 6.4 0.00 0.33 0.20 87 1016.9
20201025081021 11 180 1.6 11.3 0.00 0.38 0.20 82 1016.5
20201025080027 11 180 1.6 14.5 0.00 0.53 0.20 80 1016.2
20201025074019 11 180 1.6 17.7 0.00 0.66 0.20 79 1015.7
20201025062024 12 203 3.2 19.3 0.00 0.69 0.20 74 1015.1
20201025060034 12 180 1.6 14.5 0.00 0.69 0.20 76 1014.8
20201025054024 12 158 3.2 19.3 0.00 0.69 0.20 74 1014.7
20201025051027 12 158 3.2 20.9 0.00 0.71 0.20 73 1014.6
20201025045027 13 180 3.2 22.5 0.00 0.71 0.20 73 1014.2
20201025042026 13 158 1.6 22.5 0.00 0.71 0.20 69 1014.1
20201025035023 14 0.0 6.4 0.00 0.71 0.20 71 1014.2
20201025034024 14 0.0 8.0 0.00 0.71 0.20 73 1014.3
20201025031025 13 0.0 12.9 0.00 0.71 0.20 73 1014.1
20201025025019 13 158 1.6 19.3 0.00 0.71 0.20 72 1014.1
20201025024023 13 158 1.6 16.1 0.00 0.71 0.20 74 1014.2
20201025022036 12 158 3.2 24.1 0.00 0.71 0.20 74 1014.0
20201025020037 12 158 1.6 19.3 0.00 0.71 0.20 77 1014.0
20201025015027 12 158 3.2 16.1 0.00 0.71 0.20 74 1014.0
20201025014030 12 158 1.6 17.7 0.00 0.71 0.20 75 1013.8
20201025013033 11 158 3.2 19.3 0.00 0.71 0.20 74 1013.9
20201025012020 11 158 3.2 17.7 0.00 0.71 0.20 76 1014.0
20201025010030 11 158 1.6 19.3 0.00 0.71 0.20 78 1014.0
20201025005026 10 180 1.6 17.7 0.00 0.71 0.20 77 1013.9
20201025004023 10 158 3.2 19.3 0.00 0.71 0.20 78 1014.0
20201025001019 10 158 3.2 16.1 0.00 0.71 0.20 79 1014.0
20201024235021 9 158 3.2 19.3 0.00 0.71 0.20 80 1013.8
20201024234029 9 158 3.2 16.1 0.00 0.76 0.20 81 1013.9
20201024232025 8 158 1.6 19.3 0.00 0.99 0.20 83 1013.8
20201024231023 8 158 3.2 17.7 0.00 1.09 0.20 84 1013.6
20201024230032 8 158 3.2 20.9 0.03 1.09 0.20 87 1013.6
20201024225021 8 158 6.4 25.7 0.03 1.09 0.20 84 1013.4
20201024222022 7 158 4.8 24.1 0.03 1.09 0.20 87 1013.2
20201024221020 7 158 3.2 16.1 0.03 1.17 0.20 90 1013.0
20201024220025 7 180 4.8 19.3 0.00 1.17 0.18 89 1012.9
20201024215022 7 158 4.8 19.3 0.00 1.19 0.18 88 1012.8
20201024214022 7 158 6.4 20.9 0.00 1.19 0.18 86 1012.8
20201024213023 7 158 3.2 22.5 0.00 1.22 0.18 85 1012.5
20201024211020 7 158 3.2 19.3 0.00 1.27 0.18 85 1012.1
20201024210023 6 158 6.4 22.5 0.00 1.27 0.18 85 1011.7
20201024204020 6 158 8.0 27.4 0.00 1.27 0.18 86 1011.5
20201024203019 6 158 4.8 20.9 0.00 1.27 0.18 89 1011.3
20201024202024 6 158 3.2 17.7 0.03 1.27 0.18 90 1011.2
20201024200033 6 158 3.2 20.9 0.05 1.27 0.18 91 1010.8
20201024193045 7 158 3.2 19.3 0.05 1.27 0.18 94 1010.4
20201024191028 7 0.0 9.7 0.05 1.24 0.15 94 1009.9
20201024182020 8 0.0 16.1 0.05 1.24 0.10 95 1008.8
20201024181027 8 0.0 12.9 0.05 1.27 0.10 95 1008.8
20201024175022 8 0.0 12.9 0.05 1.45 0.08 94 1008.6
20201024173040 8 0.0 8.0 0.05 1.50 0.05 94 1008.4
20201024171024 8 0.0 12.9 0.05 1.52 0.05 94 1008.0
20201024170025 8 0.0 3.2 0.05 1.52 0.05 94 1008.0
20201024163026 8 0.0 4.8 0.03 1.47 0.03 93 1007.8
20201024162032 8 0.0 14.5 0.03 1.47 0.03 92 1007.7
20201024161021 8 0.0 3.2 0.03 1.47 0.03 91 1007.6
20201024160023 9 0.0 1.6 0.03 1.47 0.03 91 1007.7
20201024155019 9 0.0 3.2 0.00 1.45 0.00 91 1007.7
20201024154023 9 0.0 0.0 0.00 1.47 0.00 90 1007.7
20201024151028 9 0.0 12.9 0.00 1.55 0.00 88 1007.3
20201024150024 9 0.0 14.5 0.00 1.55 0.00 87 1007.3
20201024145026 9 0.0 8.0 0.00 1.55 0.00 88 1007.5
20201024144039 9 0.0 1.6 0.00 1.55 0.00 89 1007.5
20201024141019 10 0.0 14.5 0.00 1.57 0.00 88 1007.2
20201024135020 10 0.0 12.9 0.00 1.60 0.00 90 1007.2